Location: Czernica
(51.0462°N, 17.2458°E)
Time: 15:28:27
(UTC+01:00)

ISS - Pass Details

Date: 24 January 2019
Orbit: 403 x 411 km, 51.6° (Epoch: 20 February)

Event Time Altitude Azimuth Distance (km) Brightness Sun altitude
Rises 17:43:35 0° 199° (SSW) 2,324 0.6 -11.8°
Reaches altitude 10° 17:46:20 10° 174° (S) 1,470 -0.9 -12.2°
Maximum altitude 17:48:12 14° 139° (SE) 1,235 -1.6 -12.5°
Enters shadow 17:49:06 13° 121° (ESE) 1,295 -1.7 -12.6°
